﻿測定場所 (Monitoring sites),日付 (Measurement date),時間 (Measurement time),線量率 最大値 (max) μGy/h,線量率 最小値 (min) μGy/h,線量率 平均値 (average) μGy/h,
八王子 (Hachioji),2013-02-24,23:01～24:00,0.0409,0.0343,0.0366,
八王子 (Hachioji),2013-02-24,22:01～23:00,0.0391,0.0341,0.0365,
八王子 (Hachioji),2013-02-24,21:01～22:00,0.0407,0.0344,0.0366,
八王子 (Hachioji),2013-02-24,20:01～21:00,0.0397,0.0351,0.0369,
八王子 (Hachioji),2013-02-24,19:01～20:00,0.0391,0.0350,0.0369,
八王子 (Hachioji),2013-02-24,18:01～19:00,0.0390,0.0347,0.0368,
八王子 (Hachioji),2013-02-24,17:01～18:00,0.0397,0.0348,0.0368,
八王子 (Hachioji),2013-02-24,16:01～17:00,0.0411,0.0343,0.0372,
八王子 (Hachioji),2013-02-24,15:01～16:00,0.0410,0.0346,0.0373,
八王子 (Hachioji),2013-02-24,14:01～15:00,0.0401,0.0345,0.0369,
八王子 (Hachioji),2013-02-24,13:01～14:00,0.0403,0.0350,0.0369,
八王子 (Hachioji),2013-02-24,12:01～13:00,0.0419,0.0355,0.0372,
八王子 (Hachioji),2013-02-24,11:01～12:00,0.0389,0.0350,0.0369,
八王子 (Hachioji),2013-02-24,10:01～11:00,0.0399,0.0351,0.0370,
八王子 (Hachioji),2013-02-24,09:01～10:00,0.0407,0.0347,0.0374,
八王子 (Hachioji),2013-02-24,08:01～09:00,0.0413,0.0351,0.0378,
八王子 (Hachioji),2013-02-24,07:01～08:00,0.0430,0.0354,0.0381,
八王子 (Hachioji),2013-02-24,06:01～07:00,0.0407,0.0351,0.0372,
八王子 (Hachioji),2013-02-24,05:01～06:00,0.0411,0.0340,0.0369,
八王子 (Hachioji),2013-02-24,04:01～05:00,0.0404,0.0347,0.0371,
八王子 (Hachioji),2013-02-24,03:01～04:00,0.0407,0.0355,0.0373,
八王子 (Hachioji),2013-02-24,02:01～03:00,0.0416,0.0348,0.0371,
八王子 (Hachioji),2013-02-24,01:01～02:00,0.0390,0.0348,0.0367,
八王子 (Hachioji),2013-02-24,00:01～01:00,0.0390,0.0348,0.0366,
八王子 (Hachioji),2013-02-23,23:01～24:00,0.0413,0.0341,0.0369,
八王子 (Hachioji),2013-02-23,22:01～23:00,0.0409,0.0351,0.0370,
八王子 (Hachioji),2013-02-23,21:01～22:00,0.0395,0.0346,0.0368,
八王子 (Hachioji),2013-02-23,20:01～21:00,0.0397,0.0348,0.0368,
八王子 (Hachioji),2013-02-23,19:01～20:00,0.0391,0.0349,0.0365,
八王子 (Hachioji),2013-02-23,18:01～19:00,0.0398,0.0349,0.0366,
八王子 (Hachioji),2013-02-23,17:01～18:00,0.0397,0.0345,0.0366,
八王子 (Hachioji),2013-02-23,16:01～17:00,0.0391,0.0342,0.0366,
八王子 (Hachioji),2013-02-23,15:01～16:00,0.0403,0.0345,0.0369,
八王子 (Hachioji),2013-02-23,14:01～15:00,0.0394,0.0333,0.0364,
八王子 (Hachioji),2013-02-23,13:01～14:00,0.0396,0.0345,0.0364,
八王子 (Hachioji),2013-02-23,12:01～13:00,0.0402,0.0341,0.0364,
八王子 (Hachioji),2013-02-23,11:01～12:00,0.0400,0.0339,0.0365,
八王子 (Hachioji),2013-02-23,10:01～11:00,0.0409,0.0347,0.0370,
八王子 (Hachioji),2013-02-23,09:01～10:00,0.0389,0.0326,0.0359,
八王子 (Hachioji),2013-02-23,08:01～09:00,0.0374,0.0349,0.0362,
八王子 (Hachioji),2013-02-23,07:01～08:00,0.0382,0.0340,0.0359,
八王子 (Hachioji),2013-02-23,06:01～07:00,0.0379,0.0341,0.0361,
八王子 (Hachioji),2013-02-23,05:01～06:00,0.0399,0.0345,0.0364,
八王子 (Hachioji),2013-02-23,04:01～05:00,0.0385,0.0346,0.0366,
八王子 (Hachioji),2013-02-23,03:01～04:00,0.0387,0.0349,0.0366,
八王子 (Hachioji),2013-02-23,02:01～03:00,0.0398,0.0353,0.0370,
八王子 (Hachioji),2013-02-23,01:01～02:00,0.0399,0.0348,0.0367,
八王子 (Hachioji),2013-02-23,00:01～01:00,0.0400,0.0343,0.0364,
八王子 (Hachioji),2013-02-22,23:01～24:00,0.0393,0.0346,0.0364,
八王子 (Hachioji),2013-02-22,22:01～23:00,0.0395,0.0346,0.0366,
八王子 (Hachioji),2013-02-22,21:01～22:00,0.0380,0.0344,0.0364,
八王子 (Hachioji),2013-02-22,20:01～21:00,0.0396,0.0349,0.0365,
八王子 (Hachioji),2013-02-22,19:01～20:00,0.0413,0.0343,0.0361,
八王子 (Hachioji),2013-02-22,18:01～19:00,0.0384,0.0338,0.0363,
八王子 (Hachioji),2013-02-22,17:01～18:00,0.0387,0.0344,0.0365,
八王子 (Hachioji),2013-02-22,16:01～17:00,0.0393,0.0343,0.0363,
八王子 (Hachioji),2013-02-22,15:01～16:00,0.0387,0.0348,0.0366,
八王子 (Hachioji),2013-02-22,14:01～15:00,0.0392,0.0345,0.0366,
八王子 (Hachioji),2013-02-22,13:01～14:00,0.0393,0.0345,0.0363,
八王子 (Hachioji),2013-02-22,12:01～13:00,0.0403,0.0345,0.0365,
八王子 (Hachioji),2013-02-22,11:01～12:00,0.0391,0.0351,0.0367,
八王子 (Hachioji),2013-02-22,10:01～11:00,0.0402,0.0351,0.0366,
八王子 (Hachioji),2013-02-22,09:01～10:00,0.0388,0.0351,0.0368,
八王子 (Hachioji),2013-02-22,08:01～09:00,0.0406,0.0349,0.0374,
八王子 (Hachioji),2013-02-22,07:01～08:00,0.0411,0.0352,0.0375,
八王子 (Hachioji),2013-02-22,06:01～07:00,0.0418,0.0357,0.0380,
八王子 (Hachioji),2013-02-22,05:01～06:00,0.0414,0.0358,0.0379,
八王子 (Hachioji),2013-02-22,04:01～05:00,0.0418,0.0360,0.0384,
八王子 (Hachioji),2013-02-22,03:01～04:00,0.0402,0.0359,0.0379,
八王子 (Hachioji),2013-02-22,02:01～03:00,0.0413,0.0356,0.0380,
八王子 (Hachioji),2013-02-22,01:01～02:00,0.0406,0.0353,0.0379,
八王子 (Hachioji),2013-02-22,00:01～01:00,0.0404,0.0352,0.0373,
八王子 (Hachioji),2013-02-21,23:01～24:00,0.0402,0.0343,0.0367,
八王子 (Hachioji),2013-02-21,22:01～23:00,0.0381,0.0348,0.0365,
八王子 (Hachioji),2013-02-21,21:01～22:00,0.0393,0.0347,0.0365,
八王子 (Hachioji),2013-02-21,20:01～21:00,0.0398,0.0343,0.0366,
八王子 (Hachioji),2013-02-21,19:01～20:00,0.0388,0.0346,0.0365,
八王子 (Hachioji),2013-02-21,18:01～19:00,0.0394,0.0348,0.0365,
八王子 (Hachioji),2013-02-21,17:01～18:00,0.0389,0.0343,0.0368,
八王子 (Hachioji),2013-02-21,16:01～17:00,0.0391,0.0344,0.0364,
八王子 (Hachioji),2013-02-21,15:01～16:00,0.0399,0.0338,0.0362,
八王子 (Hachioji),2013-02-21,14:01～15:00,0.0407,0.0341,0.0365,
八王子 (Hachioji),2013-02-21,13:01～14:00,0.0389,0.0345,0.0361,
八王子 (Hachioji),2013-02-21,12:01～13:00,0.0386,0.0350,0.0364,
八王子 (Hachioji),2013-02-21,11:01～12:00,0.0396,0.0344,0.0365,
八王子 (Hachioji),2013-02-21,10:01～11:00,0.0386,0.0343,0.0364,
八王子 (Hachioji),2013-02-21,09:01～10:00,0.0391,0.0344,0.0367,
八王子 (Hachioji),2013-02-21,08:01～09:00,0.0405,0.0350,0.0370,
八王子 (Hachioji),2013-02-21,07:01～08:00,0.0410,0.0346,0.0369,
八王子 (Hachioji),2013-02-21,06:01～07:00,0.0411,0.0359,0.0374,
八王子 (Hachioji),2013-02-21,05:01～06:00,0.0396,0.0351,0.0373,
八王子 (Hachioji),2013-02-21,04:01～05:00,0.0411,0.0349,0.0372,
八王子 (Hachioji),2013-02-21,03:01～04:00,0.0396,0.0341,0.0365,
八王子 (Hachioji),2013-02-21,02:01～03:00,0.0384,0.0350,0.0364,
八王子 (Hachioji),2013-02-21,01:01～02:00,0.0394,0.0345,0.0362,
八王子 (Hachioji),2013-02-21,00:01～01:00,0.0396,0.0344,0.0364,
八王子 (Hachioji),2013-02-20,23:01～24:00,0.0393,0.0344,0.0364,
八王子 (Hachioji),2013-02-20,22:01～23:00,0.0395,0.0346,0.0366,
八王子 (Hachioji),2013-02-20,21:01～22:00,0.0386,0.0342,0.0365,
八王子 (Hachioji),2013-02-20,20:01～21:00,0.0401,0.0347,0.0365,
八王子 (Hachioji),2013-02-20,19:01～20:00,0.0391,0.0348,0.0364,
八王子 (Hachioji),2013-02-20,18:01～19:00,0.0395,0.0344,0.0364,
八王子 (Hachioji),2013-02-20,17:01～18:00,0.0407,0.0343,0.0361,
八王子 (Hachioji),2013-02-20,16:01～17:00,0.0401,0.0348,0.0364,
八王子 (Hachioji),2013-02-20,15:01～16:00,0.0405,0.0346,0.0365,
八王子 (Hachioji),2013-02-20,14:01～15:00,0.0417,0.0342,0.0365,
八王子 (Hachioji),2013-02-20,13:01～14:00,0.0382,0.0339,0.0361,
八王子 (Hachioji),2013-02-20,12:01～13:00,0.0399,0.0340,0.0365,
八王子 (Hachioji),2013-02-20,11:01～12:00,0.0390,0.0344,0.0362,
八王子 (Hachioji),2013-02-20,10:01～11:00,0.0400,0.0346,0.0362,
八王子 (Hachioji),2013-02-20,09:01～10:00,0.0389,0.0348,0.0365,
八王子 (Hachioji),2013-02-20,08:01～09:00,0.0395,0.0341,0.0364,
八王子 (Hachioji),2013-02-20,07:01～08:00,0.0373,0.0342,0.0359,
八王子 (Hachioji),2013-02-20,06:01～07:00,0.0390,0.0330,0.0357,
八王子 (Hachioji),2013-02-20,05:01～06:00,0.0385,0.0340,0.0360,
八王子 (Hachioji),2013-02-20,04:01～05:00,0.0381,0.0331,0.0358,
八王子 (Hachioji),2013-02-20,03:01～04:00,0.0374,0.0338,0.0358,
八王子 (Hachioji),2013-02-20,02:01～03:00,0.0388,0.0330,0.0355,
八王子 (Hachioji),2013-02-20,01:01～02:00,0.0379,0.0332,0.0356,
八王子 (Hachioji),2013-02-20,00:01～01:00,0.0378,0.0337,0.0356,
八王子 (Hachioji),2013-02-19,23:01～24:00,0.0378,0.0335,0.0356,
八王子 (Hachioji),2013-02-19,22:01～23:00,0.0371,0.0332,0.0354,
八王子 (Hachioji),2013-02-19,21:01～22:00,0.0389,0.0324,0.0355,
八王子 (Hachioji),2013-02-19,20:01～21:00,0.0382,0.0336,0.0354,
八王子 (Hachioji),2013-02-19,19:01～20:00,0.0375,0.0338,0.0356,
八王子 (Hachioji),2013-02-19,18:01～19:00,0.0394,0.0342,0.0359,
八王子 (Hachioji),2013-02-19,17:01～18:00,0.0417,0.0337,0.0368,
八王子 (Hachioji),2013-02-19,16:01～17:00,0.0497,0.0368,0.0414,
八王子 (Hachioji),2013-02-19,15:01～16:00,0.0618,0.0441,0.0528,
八王子 (Hachioji),2013-02-19,14:01～15:00,0.0678,0.0584,0.0627,
八王子 (Hachioji),2013-02-19,13:01～14:00,0.0736,0.0639,0.0699,
八王子 (Hachioji),2013-02-19,12:01～13:00,0.0777,0.0651,0.0713,
八王子 (Hachioji),2013-02-19,11:01～12:00,0.0764,0.0617,0.0678,
八王子 (Hachioji),2013-02-19,10:01～11:00,0.0668,0.0556,0.0598,
八王子 (Hachioji),2013-02-19,09:01～10:00,0.0653,0.0532,0.0602,
八王子 (Hachioji),2013-02-19,08:01～09:00,0.0636,0.0542,0.0584,
八王子 (Hachioji),2013-02-19,07:01～08:00,0.0582,0.0430,0.0528,
八王子 (Hachioji),2013-02-19,06:01～07:00,0.0475,0.0355,0.0396,
八王子 (Hachioji),2013-02-19,05:01～06:00,0.0417,0.0351,0.0377,
八王子 (Hachioji),2013-02-19,04:01～05:00,0.0402,0.0348,0.0369,
八王子 (Hachioji),2013-02-19,03:01～04:00,0.0401,0.0353,0.0371,
八王子 (Hachioji),2013-02-19,02:01～03:00,0.0410,0.0354,0.0374,
八王子 (Hachioji),2013-02-19,01:01～02:00,0.0407,0.0355,0.0375,
八王子 (Hachioji),2013-02-19,00:01～01:00,0.0422,0.0357,0.0379,
八王子 (Hachioji),2013-02-18,23:01～24:00,0.0416,0.0352,0.0376,
八王子 (Hachioji),2013-02-18,22:01～23:00,0.0442,0.0368,0.0404,
八王子 (Hachioji),2013-02-18,21:01～22:00,0.0479,0.0402,0.0440,
八王子 (Hachioji),2013-02-18,20:01～21:00,0.0448,0.0354,0.0402,
八王子 (Hachioji),2013-02-18,19:01～20:00,0.0421,0.0350,0.0371,
八王子 (Hachioji),2013-02-18,18:01～19:00,0.0393,0.0350,0.0367,
八王子 (Hachioji),2013-02-18,17:01～18:00,0.0407,0.0356,0.0372,
八王子 (Hachioji),2013-02-18,16:01～17:00,0.0430,0.0364,0.0396,
八王子 (Hachioji),2013-02-18,15:01～16:00,0.0433,0.0364,0.0392,
八王子 (Hachioji),2013-02-18,14:01～15:00,0.0444,0.0364,0.0388,
八王子 (Hachioji),2013-02-18,13:01～14:00,0.0423,0.0360,0.0385,
八王子 (Hachioji),2013-02-18,12:01～13:00,0.0429,0.0359,0.0395,
八王子 (Hachioji),2013-02-18,11:01～12:00,0.0434,0.0365,0.0393,
八王子 (Hachioji),2013-02-18,10:01～11:00,0.0409,0.0360,0.0385,
八王子 (Hachioji),2013-02-18,09:01～10:00,0.0411,0.0357,0.0385,
八王子 (Hachioji),2013-02-18,08:01～09:00,0.0403,0.0350,0.0375,
八王子 (Hachioji),2013-02-18,07:01～08:00,0.0408,0.0351,0.0372,
八王子 (Hachioji),2013-02-18,06:01～07:00,0.0392,0.0353,0.0372,
八王子 (Hachioji),2013-02-18,05:01～06:00,0.0404,0.0359,0.0374,
八王子 (Hachioji),2013-02-18,04:01～05:00,0.0430,0.0352,0.0377,
八王子 (Hachioji),2013-02-18,03:01～04:00,0.0420,0.0357,0.0377,
八王子 (Hachioji),2013-02-18,02:01～03:00,0.0420,0.0353,0.0376,
八王子 (Hachioji),2013-02-18,01:01～02:00,0.0398,0.0347,0.0372,
八王子 (Hachioji),2013-02-18,00:01～01:00,0.0422,0.0353,0.0377,
